www.pogodaiklimat.ru

Погода и климат >> Архив погоды >> Австралия >> Западная Австралия >> Джайлс


ПОГОДА в Джайлсе

  • Прогноз погоды в Джайлсе
  • Монитор погоды в Джайлсе

АРХИВ ПОГОДЫ в Джайлсе

Время (UTC), дата Ветер
(напр.,м/с)
 
Видим.   Явления Облачность Т
(С)
Тd
(С)
f
(%)
Тe
(С)
Тes
(С)
Комфортность P
(гПа)
Po
(гПа)
Тmin
(С)
Tmax
(С)
R
(мм)
R24
(мм)
S
(см)
07 13.09 В 6 н/о н/о +32.3 -14.7 4 +28 +28 жарко 1020.7 952.6
08 13.09 СВ 6 40 км ясно +31.5 -10.5 6 +27 +27 жарко 1020.7 952.6
09 13.09 В 7 н/о н/о +30.3 -13.9 5 +26 +26 жарко 1021.0 952.9
10 13.09 В 4 н/о н/о +27.6 -8.9 8 +24 +24 комфорт 1021.9 953.7
11 13.09 В 4 40 км ясно +25.1 -10.1 9 +22 +22 комфорт 1022.6 954.4
12 13.09 В 4 н/о н/о +25.3 -10.0 9 +22 +22 комфорт 1023.0 954.7
13 13.09 В 4 н/о н/о +23.4 -11.5 9 +21 +21 комфорт 1022.9 954.6
14 13.09 В 5 н/о н/о +21.7 -11.3 10 +20 +20 1023.0 954.7 +33.2
15 13.09 В 4 н/о н/о +22.5 -11.3 9 +20 +20 1022.6 954.4
16 13.09 В 4 н/о н/о +23.3 -11.1 9 +21 +21 комфорт 1022.3 954.1
17 13.09 СВ 3 н/о н/о +20.8 -9.6 12 +20 +20 1022.2 954.0
18 13.09 СВ 3 н/о н/о +23.7 -9.6 10 +21 +21 комфорт 1021.9 953.7
19 13.09 СВ 3 н/о н/о +22.8 -7.5 13 +21 +21 комфорт 1021.7 953.5
20 13.09 СВ 3 40 км ясно +22.0 -6.5 14 +20 +20 1022.2 954.0
21 13.09 СВ 3 н/о н/о +21.9 -7.4 13 +20 +20 1022.9 954.6
22 13.09 СВ 2 н/о н/о +22.4 -6.5 14 +21 +21 комфорт 1023.5 955.2
23 13.09 СВ 4 40 км ясно +25.8 -8.9 9 +23 +23 комфорт 1024.2 955.9
00 14.09 С 8 н/о н/о +27.8 -9.0 8 +24 +24 комфорт 1024.2 955.9
01 14.09 С 8 н/о н/о +29.2 -11.5 6 +25 +25 комфорт 1023.9 955.6
02 14.09 С 6 40 км ясно +31.1 -10.9 6 +27 +27 жарко 1023.4 955.1 +19.4
03 14.09 В 7 н/о н/о +30.7 -11.9 6 +26 +26 жарко 1022.7 954.5
04 14.09 СВ 5 н/о н/о +30.9 -10.1 6 +27 +27 жарко 1021.8 953.6
05 14.09 СВ 7 40 км ясно +32.0 -12.3 5 +27 +27 жарко 1020.7 952.6
06 14.09 В 7 н/о н/о +32.5 -18.1 3 +28 +28 жарко 1019.7 951.7
07 14.09 СВ 6 н/о н/о +32.4 -17.5 3 +28 +28 жарко 1019.2 951.2
08 14.09 СВ 6 40 км ясно +31.4 -17.0 4 +27 +27 жарко 1019.4 951.4
09 14.09 В 5 н/о н/о +30.2 -18.0 3 +26 +26 жарко 1019.6 951.6
10 14.09 В 4 н/о н/о +27.0 -11.3 7 +23 +23 комфорт 1020.1 952.0
11 14.09 В 4 40 км ясно +25.5 -14.0 6 +22 +22 комфорт 1020.6 952.5
12 14.09 В 4 н/о н/о +24.7 -14.2 7 +22 +22 комфорт 1020.8 952.7
13 14.09 В 4 н/о н/о +24.4 -14.8 6 +21 +21 комфорт 1020.6 952.5
14 14.09 В 4 н/о н/о +22.8 -14.0 7 +20 +20 1020.3 952.2 +33.2
15 14.09 В 4 н/о н/о +21.8 -15.0 7 +20 +20 1020.0 951.9
16 14.09 В 4 н/о н/о +20.4 -14.0 9 +20 +20 1019.6 951.6
17 14.09 СВ 3 н/о н/о +20.7 -13.6 9 +20 +20 1019.4 951.4
18 14.09 СВ 3 н/о н/о +16.5 -14.5 11 +17 +17 1018.9 950.9
19 14.09 СВ 3 н/о н/о +15.6 -16.5 10 +15 +15 1018.9 950.9
20 14.09 СВ 2 40 км ясно +19.6 -8.3 14 +20 +20 1019.4 951.4
21 14.09 СВ 2 н/о н/о +18.7 -9.8 13 +19 +19 1019.9 951.8
22 14.09 СВ 2 н/о н/о +19.9 -12.0 11 +20 +20 1020.4 952.3
23 14.09 СВ 3 40 км ясно +24.8 -15.7 6 +22 +22 комфорт 1020.9 952.8
00 15.09 СВ 4 н/о н/о +28.6 -22.5 3 +24 +24 комфорт 1021.2 953.1
01 15.09 С 6 н/о н/о +29.5 -24.7 2 +25 +25 комфорт 1020.9 952.8
02 15.09 С 5 40 км ясно +30.7 -25.7 2 +26 +26 жарко 1020.4 952.3 +15.6
03 15.09 С 4 н/о н/о +31.1 -17.9 3 +26 +26 жарко 1019.5 951.5
04 15.09 СВ 4 н/о н/о +32.2 -17.6 3 +27 +27 жарко 1018.6 950.6
05 15.09 СВ 6 40 км ясно +32.4 -18.7 3 +28 +28 жарко 1017.7 949.8
06 15.09 С 5 н/о н/о +32.4 -20.2 3 +28 +28 жарко 1017.0 949.1
07 15.09 С 3 н/о н/о +33.2 -25.0 2 +28 +28 жарко 1016.7 948.9
08 15.09 С 5 40 км ясно +32.4 -21.9 2 +27 +27 жарко 1016.9 949.0
09 15.09 С 2 н/о н/о +30.8 -13.8 5 +26 +26 жарко 1017.1 949.2
10 15.09 С 3 н/о н/о +27.7 -11.3 7 +24 +24 комфорт 1017.5 949.6
11 15.09 С 3 40 км ясно +25.5 -10.5 8 +22 +22 комфорт 1018.1 950.2
12 15.09 С 3 н/о н/о +24.5 -12.3 8 +22 +22 комфорт 1018.2 950.3
13 15.09 С 3 н/о н/о +24.0 -14.7 7 +21 +21 комфорт 1018.5 950.5
14 15.09 С 4 н/о н/о +21.5 -15.4 7 +20 +20 1018.2 950.3 +33.5
15 15.09 С 3 н/о н/о +23.1 -13.4 8 +20 +20 1017.9 950.0
16 15.09 С 3 н/о н/о +22.9 -13.4 8 +20 +20 1017.5 949.6
17 15.09 С 4 н/о н/о +22.7 -14.3 7 +20 +20 1017.1 949.2
18 15.09 С 3 н/о н/о +23.0 -12.9 8 +20 +20 1016.5 948.7
19 15.09 СЗ 4 н/о н/о +13.9 -17.9 9 +13 +13 1016.5 948.7
20 15.09 ЮЗ 2 40 км ясно +18.3 -11.0 13 +19 +19 1017.0 949.1
21 15.09 ЮЗ 2 н/о н/о +16.0 -10.9 15 +17 +17 1017.2 949.3
22 15.09 ЮЗ 1 н/о н/о +22.3 -13.5 8 +20 +20 1017.7 949.8
23 15.09 ЮЗ 3 40 км ясно +22.4 -15.9 7 +20 +20 1019.0 951.0
00 16.09 ЮЗ 4 н/о н/о +26.2 -15.2 6 +23 +23 комфорт 1019.4 951.4
01 16.09 ЮЗ 3 н/о н/о +28.8 -17.5 4 +24 +24 комфорт 1019.2 951.2
02 16.09 ЮЗ 2 40 км ясно +31.6 -14.5 4 +27 +27 жарко 1018.8 950.8 +12.3
03 16.09 ЮЗ 3 н/о н/о +32.5 -23.0 2 +28 +28 жарко 1018.1 950.2
04 16.09 ЮЗ 3 н/о н/о +32.2 -15.0 4 +28 +28 жарко 1017.3 949.4
05 16.09 ЮЗ 2 40 км ясно +34.0 -14.5 4 +29 +29 жарко 1016.5 948.7
06 16.09 ЮВ 5 н/о н/о +33.4 -20.5 2 +28 +28 жарко 1015.7 947.9
07 16.09 В 3 н/о н/о +33.3 -12.4 5 +29 +29 жарко 1015.1 947.4
08 16.09 ЮВ 2 40 км 6/0
[Ci fib]
+32.6 -11.6 5 +28 +28 жарко 1015.2 947.5
09 16.09 Ю 5 н/о н/о +30.9 -9.7 7 +27 +27 жарко 1015.4 947.6
10 16.09 ЮВ 6 н/о н/о +28.5 -6.7 10 +25 +25 комфорт 1016.0 948.2
11 16.09 Ю 5 40 км 3/0
[Ci fib]
+26.5 -4.1 13 +24 +24 комфорт 1017.1 949.2
12 16.09 ЮВ 5 н/о н/о +25.1 -1.7 17 +23 +23 комфорт 1018.0 950.1
13 16.09 ЮВ 5 н/о н/о +23.8 +1.0 22 +23 +23 комфорт 1018.2 950.3
14 16.09 ЮВ 4 н/о н/о +21.7 +1.1 25 +21 +21 комфорт 1018.1 950.2 +34.2
15 16.09 ЮВ 5 н/о н/о +20.4 +1.8 29 +21 +21 комфорт 1017.7 949.8
16 16.09 ЮВ 5 н/о н/о +19.5 +1.9 31 +20 +20 1017.2 949.3
17 16.09 В 7 н/о н/о +19.6 +2.0 31 +19 +19 1017.1 949.2
18 16.09 В 6 н/о н/о +18.4 +2.2 34 +18 +18 1016.5 948.7
19 16.09 В 6 н/о н/о +19.2 +3.3 35 +19 +19 1016.6 948.8
20 16.09 В 5 40 км ясно +19.1 +3.4 35 +19 +19 1017.2 949.3
21 16.09 В 3 н/о н/о +19.0 +4.7 39 +20 +20 1017.6 949.7
22 16.09 В 2 н/о н/о +19.7 +5.2 39 +21 +21 комфорт 1017.9 950.0
23 16.09 В 6 40 км ясно +22.5 +4.5 31 +23 +23 комфорт 1018.6 950.6
00 17.09 СВ 5 н/о н/о +25.5 +3.9 25 +25 +25 комфорт 1018.9 950.9
01 17.09 В 6 н/о н/о +28.0 +0.2 16 +26 +26 жарко 1018.7 950.7
02 17.09 СВ 7 40 км 1/0
[Ci fib]
+29.8 -2.3 12 +27 +27 жарко 1018.2 950.3 +18.3
03 17.09 С 6 н/о н/о +31.5 -3.8 10 +28 +28 жарко 1017.6 949.7
04 17.09 С 5 н/о н/о +31.6 -5.1 9 +28 +28 жарко 1016.7 948.9
05 17.09 С 3 40 км 1/1
[Cu med, cong]
+32.3 -3.9 9 +28 +28 жарко 1015.7 947.9
06 17.09 СВ 3 н/о н/о +32.8 -11.4 5 +28 +28 жарко 1015.1 947.4
07 17.09 СВ 3 н/о н/о +32.8 -11.4 5 +28 +28 жарко 1014.9 947.2
08 17.09 С 5 40 км 1/0
[Ac cast]
+32.4 -14.7 4 +28 +28 жарко 1015.2 947.5
09 17.09 С 3 н/о н/о +31.3 -11.1 6 +27 +27 жарко 1015.4 947.6
10 17.09 С 3 н/о н/о +28.4 -7.7 9 +25 +25 комфорт 1016.0 948.2
11 17.09 С 3 40 км 1/0
[Ac trans]
+27.1 -6.1 11 +24 +24 комфорт 1016.5 948.7
12 17.09 С 2 н/о н/о +25.0 -2.3 16 +23 +23 комфорт 1017.2 949.3
13 17.09 С 2 н/о н/о +24.4 -2.9 16 +23 +23 комфорт 1017.3 949.4
14 17.09 С 1 н/о н/о +21.6 -6.9 14 +20 +20 1017.1 949.2 +34.2
15 17.09 штиль 0 н/о н/о +21.0 -7.5 14 +20 +20 1016.7 948.9
16 17.09 С 2 н/о н/о +21.1 -2.8 20 +20 +20 1016.9 949.0
17 17.09 штиль 0 н/о н/о +16.8 -11.1 14 +17 +17 1016.5 948.7
18 17.09 С 3 н/о н/о +20.6 -10.0 12 +20 +20 1016.3 948.5
19 17.09 С 3 н/о н/о +22.7 -8.9 11 +21 +21 комфорт 1016.0 948.2
20 17.09 С 3 40 км ясно +19.1 -7.9 15 +19 +19 1016.4 948.6
21 17.09 С 2 н/о н/о +19.6 -7.6 15 +20 +20 1016.9 949.0
22 17.09 С 2 н/о н/о +18.1 -8.4 16 +19 +19 1017.2 949.3
23 17.09 С 5 40 км ясно +27.2 -18.2 4 +23 +23 комфорт 1017.9 950.0
00 18.09 С 7 н/о н/о +27.9 -16.1 5 +24 +24 комфорт 1018.0 950.1
01 18.09 С 8 н/о н/о +29.5 -17.6 4 +25 +25 комфорт 1018.2 950.3
02 18.09 С 9 40 км 3/0
[Ci sp]
+31.0 -21.7 2 +26 +26 жарко 1017.8 949.9 +15.7
03 18.09 С 9 н/о н/о +31.7 -18.6 3 +27 +27 жарко 1017.3 949.4
04 18.09 С 6 н/о н/о +33.0 -21.1 2 +28 +28 жарко 1016.1 948.3
05 18.09 С 6 40 км 1/0
[Ci sp]
+33.2 -30.7 1 +28 +28 жарко 1015.1 947.4
06 18.09 С 6 н/о н/о +33.6 -23.9 2 +29 +29 жарко 1014.3 946.6
07 18.09 С 7 н/о н/о +33.8 -23.5 2 +29 +29 жарко 1013.7 946.1
08 18.09 С 8 40 км ясно +33.6 -21.8 2 +29 +29 жарко 1013.5 945.9
09 18.09 С 7 н/о н/о +32.2 -18.4 3 +27 +27 жарко 1013.5 945.9
10 18.09 С 5 н/о н/о +30.1 -15.6 4 +26 +26 жарко 1013.7 946.1
11 18.09 С 6 40 км ясно +28.9 -15.3 5 +25 +25 комфорт 1014.4 946.7
12 18.09 С 6 н/о н/о +28.4 -17.3 4 +24 +24 комфорт 1014.8 947.2
13 18.09 С 7 н/о н/о +28.1 -19.5 3 +24 +24 комфорт 1014.8 947.1
14 18.09 С 6 н/о н/о +26.9 -17.4 4 +23 +23 комфорт 1014.5 946.8 +34.9
15 18.09 С 6 н/о н/о +26.2 -17.0 5 +22 +22 комфорт 1014.1 946.4
16 18.09 С 6 н/о н/о +25.7 -15.5 6 +22 +22 комфорт 1013.5 945.9
17 18.09 С 7 н/о н/о +25.7 -14.4 6 +22 +22 комфорт 1013.3 945.7
18 18.09 С 4 н/о н/о +22.3 -10.1 11 +20 +20 1013.1 945.5
19 18.09 С 4 н/о н/о +21.2 -9.2 12 +20 +20 1012.8 945.2
20 18.09 С 4 40 км 1/0
[Ac trans]
+20.6 -8.6 13 +20 +20 1012.9 945.3
21 18.09 С 5 н/о н/о +21.1 -8.9 12 +20 +20 1013.2 945.6
22 18.09 С 5 н/о н/о +21.9 -8.2 13 +20 +20 1013.3 945.7
23 18.09 С 7 40 км 1/0
[Ac trans]
+24.9 -9.0 10 +22 +22 комфорт 1013.5 945.9
00 19.09 С 8 н/о н/о +28.3 -10.1 7 +24 +24 комфорт 1013.4 945.8
01 19.09 С 11 н/о н/о +30.7 -11.3 6 +26 +26 жарко 1013.0 945.4
02 19.09 С 13 10 км пыльный позёмок 1/0
[Ac trans]
+31.5 -9.2 7 +27 +27 жарко 1012.0 944.5 +20.2
03 19.09 С 11 н/о н/о +32.7 -9.2 6 +28 +28 жарко 1010.9 943.4
04 19.09 СЗ 11 н/о н/о +33.9 -13.5 4 +29 +29 жарко 1009.6 942.2
05 19.09 СЗ 11 12 км пыльный позёмок 3/0
[Ac trans]
+33.8 -12.0 5 +29 +29 жарко 1008.4 941.1
06 19.09 СЗ 12 н/о н/о +33.2 -12.4 5 +29 +29 жарко 1007.6 940.5
07 19.09 СЗ 11 н/о н/о +33.3 -11.9 5 +29 +29 жарко 1007.1 939.9
08 19.09 СЗ 10 20 км пыльный позёмок 6/0
[Ac cast]
+32.4 -12.0 5 +28 +28 жарко 1006.9 939.7
09 19.09 С 9 н/о н/о +31.9 -11.1 6 +28 +28 жарко 1007.1 939.9
10 19.09 СЗ 7 н/о н/о +31.0 -12.1 5 +27 +27 жарко 1007.7 940.5
11 19.09 З 5 40 км 6/0
[Ac cast]
+29.7 -12.4 6 +26 +26 жарко 1008.4 941.1
12 19.09 З 5 н/о н/о +28.2 -11.1 7 +24 +24 комфорт 1009.0 941.7
13 19.09 З 6 н/о н/о +26.4 -10.2 8 +23 +23 комфорт 1009.4 942.0
14 19.09 ЮЗ 3 н/о 8/0
[]
+23.2 -4.9 15 +21 +21 комфорт 1009.8 942.4 +34.7
15 19.09 ЮЗ 7 н/о н/о +23.5 -7.3 12 +21 +21 комфорт 1010.2 942.8
16 19.09 Ю 7 н/о н/о +22.0 -3.2 18 +21 +21 комфорт 1010.0 942.6
17 19.09 Ю 6 н/о 6/0
[]
+20.6 -2.5 21 +20 +20 1009.6 942.2
18 19.09 Ю 8 н/о н/о +17.9 +3.6 39 +17 +17 1010.0 942.6
19 19.09 Ю 8 н/о н/о +17.1 +4.4 43 +16 +16 1011.2 943.7
20 19.09 Ю 8 40 км осадки на расстоянии 8/0
[Ac cast]
+16.9 +3.5 41 +16 +16 1012.1 944.6
21 19.09 Ю 9 н/о н/о +16.1 +1.7 38 +14 +14 1013.4 945.8
22 19.09 Ю 10 н/о н/о +14.0 +2.7 46 +11 +11 1015.0 947.3
23 19.09 Ю 11 30 км осадки на расстоянии 8/4 600 м
[Sc Ac cast Ci sp]
+11.7 +5.2 64 +8 +8 1017.2 949.3
00 20.09 Ю 11 н/о н/о +12.9 +3.6 53 +10 +10 1017.9 950.0
01 20.09 Ю 10 н/о н/о +13.0 +3.5 52 +10 +10 1018.5 950.5
02 20.09 Ю 9 40 км 4/0
[Ac trans Ci sp]
+14.2 +1.7 43 +12 +12 1018.4 950.4 +11.2
03 20.09 Ю 9 н/о н/о +16.7 +1.0 35 +15 +15 1017.5 949.6
04 20.09 Ю 8 н/о н/о +18.1 +0.1 30 +17 +17 1017.0 949.1
05 20.09 Ю 8 40 км 3/0
[Ac trans Ci sp]
+19.0 -5.0 19 +18 +18 1016.4 948.6

 

Местоположение метеостанции Джайлс (Западная Австралия, Австралия): широта -25.03 долгота 128.30 высота над уровнем моря 599 м.

В архиве по умолчанию представлена погода в Джайлсе за последнюю неделю. Архивные данные за месяц целиком и за предыдущие месяцы, начиная с января 2011 года, Вы можете получить, выбрав интересующий диапазон дат из раскрывающегося списка и нажав кнопку "Ввод!".


*Определитесь, кто Вы:
робот инопланетянин человек

Внимание! Время в таблицах - всемирное. Для получения местного времени необходимо прибавить поправку, которая равна 8 ч.

Смотрите также архив погоды в соседних городах и на ближайших метеорологических станциях:

Погода в Уорбертоне (Западная Австралия, Австралия) (212 км)
Погода в Кинторе (Северная территория, Австралия) (224 км)
Погода в Юларе (Северная территория, Австралия) (271 км)
Погода в Эрнабелле (Южная Австралия, Австралия) (413 км)
Погода в Раббит Флат (Северная территория, Австралия) (568 км)
Погода в Элис-Спрингсе (Северная территория, Австралия) (581 км)
Погода на Виноградной ферма (Северная территория, Австралия) (614 км)
Погода в Форресте (Западная Австралия, Австралия) (645 км)
Погода в Лавертоне (Западная Австралия, Австралия) (707 км)
Погода в Телфере (Западная Австралия, Австралия) (723 км)

Пояснения к столбцам:

Ветер - указаны скорость ветра в м/с - средняя за 10 мин, порывы в срок и между сроками (в фигурных скобках) и направление, откуда дует ветер: С - северный, СВ - северо-восточный, В - восточный, ЮВ - юго-восточный, Ю - южный, ЮЗ - юго-западный, З - западный, СЗ - северо-западный.
Видимость - горизонтальная дальность видимости в метрах или километрах. При видимости от 1 до 10 км при отсутствии осадков обычно наблюдается дымка, при ухудшении видимости до 1 км и менее - туман. В сухую погоду видимость может ухудшаться дымом, пылью или мглою.
Явления - указаны атмосферные явления, наблюдавшиеся в срок или в последний час перед сроком; фигурными скобками обозначены явления, наблюдавшиеся между сроками (за 1-3 часа до срока); квадратными скобками обозначены град или гололедные отложения с указанием их диаметра в мм.
Облачность - указаны через наклонную черту общая и нижняя облачность в баллах и высота нижней границы облаков в метрах; квадратными скобками обозначены формы облаков: Ci - перистые, Cs - перисто-слоистые, Cc - перисто-кучевые, Ac - высококучевые, As - высокослоистые, Sc - слоисто-кучевые, Ns - слоисто-дождевые, Cu - кучевые, Cb - кучево-дождевые. Подробнее классификацию облаков см. в Атласе облаков (PDF).
T - Температура воздуха - температура, измеренная на высоте 2 м над землей.
Td - Температура точки росы - температура, при понижении до которой содержащийся в воздухе водяной пар достигнет насыщения.
f - Относительная влажность воздуха - влажноcть воздуха, измеренная на высоте 2 м над землей.
Te - Эффективная температура - температура, которую ощущает одетый по сезону человек в тени. Характеристика душности погоды. При расчете учитывается влияние влажности воздуха и скорости ветра на теплоощущения человека.
Tes - Эффективная температура на солнце - температура, которую ощущает человек, с поправкой на солнечный нагрев. Характеристика знойности погоды. Зависит от высоты солнца над горизонтом, облачности и скорости ветра. Ночью, в пасмурную погоду, а также при ветре 12 м/с и более поправка равна нулю.
P - Атмосферное давление - приведенное к уровню моря атмосферное давление.
Po - Атмосферное давление - измеренное на уровне метеостанции атмосферное давление.
Tmin - Минимальная температура - минимум температуры воздуха на высоте 2 м над землей.
Tmax - Максимальная температура - максимум температуры воздуха на высоте 2 м над землей.
R - Количество осадков - Количество выпавших осадков за период времени, мм. При наведении курсора мыши на число - период времени, за который выпало указанное количество осадков.
R24 - Количество осадков - Количество выпавших осадков за 24 часа, мм.
S - Снежный покров - Высота снежного покрова, см. При наведении курсора мыши на число - состояние снежного покрова и степень покрытия местности в баллах.